Погода Березино

Погода Березино : погода сейчас, прогноз погоды и архив. Всё, что Вы хотите узнать о погоде Березино!

Хотите узнать прогноз погоды Березино? Тогда Вам сюда: Погода Березино

Поиск расширенной информации на нашем сайте:

Другие новости

Новости СМИ2

Главная страница сайта

Новости сайта

03.07.2017

Напоминаем, что на нашем специализированном сайте Метеоцентр.Азия вы можете получить высокодетализированные автоматические прогнозы погоды по пунктам России, СНГ и мира в авиационном формате (включающие направление и скорость ветра, видимость, явления погоды, количество и форму облачности, нижнюю и верхнюю границу облачности).


Погода Березино - сегодня

Время (UTC), дата Ветер
(°,м/с) 
Видим.   Явления Облачность Т
(°С)
Тd
(°С)
f(%) Тe
(°С)
Pmin
(гПа)
dP
(гПа)
Po
(мм)
O2
(г/м3)
Тmin Tmax R s Состояние
почвы
15 19.07.17 270 (З) 10 км    8/4 600 м кучево-дожд., средняя 
[Cb calv|Ac und]
+21.8 +11 50 +24  1017.3  -1.7  750  278           
18 19.07.17 тихо ()   10 км    8/0 средняя 
[Ac cuf]
+19 +13 68 +24  1017.3  -0.2  749  280    +22.6       
21 19.07.17 тихо ()   10 км    8/0 средняя 
[Ac und]
+14.7 +13.2 91 +20  1017.4  -0.2  749  284           
00 20.07.17 тихо ()   10 км    8/0 средняя 
[Ac und]
+14.3 +13.2 93 +20  1016.6  -0.8  749  284           
06 20.07.17 120 (ЮВ) 10 км  {ливн. осадки}  9/3 600 м кучево-дожд., средняя, верхняя 
[Cb calv|Ac cast|Ci fib]
+18.8 +15.1 79 +29  1014.7  -0.9  748  279  +14.2       
09 20.07.17 210 (ЮЗ) 10 км    9/3 1000 м верхняя 
[Cu med, cong|Cs]
+21.8 +12.7 56 +27  1014  -0.5  747  276           
12 20.07.17 180 (Ю) 10 км    6/6 600 м кучево-дожд. 
[Cb calv]
+24.6 +9.7 39 +25  1012.4  -1.5  746  274           
15 20.07.17 040 (СВ) 10 км    8/6 1000 м верхняя 
[Cu Sc|Cs]
+22.2 +12.7 55 +27  1011.9  -0.6  746  275           
18 20.07.17 050 (СВ) 10 км    3/0 средняя 
[Ac cuf]
+19.4 +14.4 73 +29  1011.9  -0.2  746  278    +25.6       
21 20.07.17 тихо ()   10 км    1/0 средняя 
[Ac und]
+14.9 +13.8 93 +22  1012.4  0.2  746  282           
00 21.07.17 330 (СЗ) 10 км    3/0 средняя 
[Ac und]
+12.8 +12.2 96 +18  1012.8  0.3  746  285           
03 21.07.17 010 (С) 8000 м  дымка  3/0 средняя 
[Ac und]
+11.9 +11.3 96 +16  1012.9  746  286           
06 21.07.17 350 (С) 10 км    1/0 верхняя 
[Ci fib]
+17.6 +13.7 78 +25  1013.1  0.6  746  280  +11.3         
09 21.07.17 340 (С) 10 км    9/3 1000 м средняя, верхняя 
[Cu med, cong|Ac cast|Ci fib]
+22 +13.9 60 +29  1013.5  0.7  747  276           
12 21.07.17 040 (СВ) 10 км    9/3 1000 м верхняя 
[Cu med, cong|Ci sp]
+24.7 +13.6 50 +31  1013.2  -0.2  747  273           
15 21.07.17 010 (С) 10 км    9/3 600 м кучево-дожд., верхняя 
[Cb calv|Ci sp]
+23.6 +13.5 53 +30  1012.9  -0.3  746  274           
18 21.07.17 020 (С) 10 км    9/3 600 м кучево-дожд., средняя 
[Cb calv|Ac As]
+19.9 +11.4 58 +24  1013.7  0.6  747  278    +25.2       
21 21.07.17 030 (СВ) 10 км  {ливн. осадки}  6/0 средняя 
[Ac As]
+17.4 +11.8 70 +22  1013.9  747  281      0.0     
00 22.07.17 030 (СВ) 10 км  слаб. ливневой дождь  9/8 600 м кучево-дожд., средняя 
[Cb calv|Ac und]
+16.6 +11.9 74 +22  1013.9  -0.1  747  281      0.0     
06 22.07.17 040 (СВ) 10 км  {ливн. осадки}  8/0 средняя 
[Ac und]
+16.5 +11.8 74 +21  1014.6  1.6  747  282  +14.6    0.1     
09 22.07.17 040 (СВ) 10 км    6/4 1000 м средняя, верхняя 
[Cu med, cong|Ac cast|Ci fib]
+21.2 +10.2 49 +23  1014.8  0.5  748  278           
12 22.07.17 010 (С) 10 км    8/8 600 м 
[Cu med, cong]
+23.7 +9.5 41 +24  1015  0.4  748  276           
15 22.07.17 030 (СВ) 10 км    8/8 600 м 
[Cu med, cong]
+22.2 +9.7 45 +23  1015.4  0.2  748  277           
18 22.07.17 350 (С) 10 км    ясно 
+20.4 +10.3 52 +22  1016.2  0.7  749  279    +25       
21 22.07.17 тихо ()   10 км    ясно 
+13.1 +12 93 +17  1017.4  0.7  749  286           
Время (UTC), дата Ветер
(°,м/с) 
Видим.   Явления Облачность Т
(°С)
Тd
(°С)
f(%) Тe
(°С)
Pmin
(гПа)
dP
(гПа)
Po
(мм)
O2
(г/м3)
Тmin Tmax R s Состояние
почвы

Для получения пояснительной информации подведите курсор к названию столбца.

ПОГОДА Березино - архив

Всё, что Вы хотите узнать о погоде Березино - удобно и подробно!

Выберите нужную дату (начиная с 1 января 2015* года) и нажмите кнопку "Найти".
Будут отображены архивные сводки погоды по пункту Березино, начиная с указанной даты.


Отображать данные в формате CSV (для использования в таблицах Excel)


Внимание! Наш архив погоды предназначен исключительно для личного некоммерческого использования в познавательных целях. Если Вам необходимы официальные справки о состоянии погоды (для производственных, юридических, коммерческих и т.п. целей), обращайтесь в органы Росгидромета.

*Примечание: данная дата относится к архиву по метеостанциям СССР (Россия, СНГ, Балтия).
Архив по метеостанциям Зарубежной Европы и Азии (кроме Китая) хранится 10 дней, по другим регионам земного шара (Китай, Африка, Америка, Австралия, Океания) - 1 день.

Березино - район местоположения метеостанции


Название, широта, долгота, высота метеостанции:
Березино 53.8°ш. 29°д. 154 м над ур. моря [Беларусь]

Дополнительная информация

В oтличие oт бoльшинства пoгoдных сайтoв мы публикуем пoдрoбную метеoинфoрмацию в детальнoм прoфессиoнальнoм фoрмате.

Характеристики температуры и влажнoсти вoздуха измеряются на высoте 2 м в тени вдали oт зданий и деревьев.
Скoрoсть ветра измеряется на высoте 10 м (на урoвне рoста челoвека скoрoсть ветра ниже в 1.5-2 раза). Если метеoстанция нахoдится в гoрoде или в лесу, тo скoрoсть ветра занижена на 2-4 м/с пo сравнению с oткрытым местoм. Скoрoсть ветра над акватoриями крупных рек и oзёр, а также на вершинах хoлмoв на 2-5 м/с выше, чем в oбычных услoвиях.
Атмoсфернoе давление в разных тoчках местнoсти мoжет значительнo oтличаться oт давления на метеoстанции, в зависимoсти oт услoвий рельефа (при пoдъёме на 10 м давление пoнижается примернo на 1 мм рт.ст.).